Location: Galliano
(29.4422°N, 90.2993°W)
Time: 18:06:56
(UTC-05:00)

Envisat - Visible Passes

Search period start: 26 May 2018 00:00
Search period end: 05 June 2018 00:00
Orbit: 764 x 766 km, 98.2° (Epoch: 26 May)

Date Brightness Start Highest point End Pass type
(mag) Time Alt. Az. Time Alt. Az. Time Alt. Az.
26 May 3.6 20:44:51 10° S 20:49:50 59° W 20:54:51 10° NNW visible
27 May 5.7 21:50:35 10° WSW 21:52:25 12° W 21:54:14 10° WNW visible
28 May 4.7 21:11:03 10° SSW 21:15:28 30° W 21:19:55 10° NW visible
29 May 3.2 20:33:38 10° S 20:38:41 78° WSW 20:43:46 10° NNW visible
30 May 5.5 21:38:08 10° SW 21:41:11 16° W 21:44:14 10° WNW visible
31 May 4.3 20:59:33 10° SSW 21:04:17 40° W 21:09:03 10° NNW visible
01 Jun 3.0 20:22:29 10° SSE 20:27:33 81° ENE 20:32:37 10° N visible
02 Jun 5.3 21:26:12 10° SW 21:29:57 21° W 21:33:44 10° NW visible
03 Jun 3.8 20:48:10 10° S 20:53:06 52° W 20:58:04 10° NNW visible
04 Jun 5.9 21:54:54 10° WSW 21:55:43 10° W 21:56:31 10° W visible
